Wind_Speed
9 12 3 20 21 11 19 10 9 13 24 34 26 20 19 24 33 22 29 32 29 29 35 39 43 45 44 45 46 47 49 50 50 51 53 55 52 53 49 36 44 48 45 44
12 6 19 10 16 13 10 11 15 19 17 24 23 17 20 30 41 39 42 38 27 29 33 38 41 44 47 49 47 47 48 50 50 52 54 55 56 54 50 53 53 51 43 36
1 13 16 12 6 7 9 15 22 21 23 24 17 19 16 37 44 46 28 30 25 23 31 36 39 42 45 48 50 51 51 52 54 53 53 54 54 55 53 47 49 42 41 39
5 22 15 9 8 13 4 20 24 24 25 20 13 18 29 34 36 36 39 37 29 38 35 36 38 39 42 44 47 49 50 52 54 53 53 55 59 46 59 51 43 45 48 44
12 9 12 5 22 19 20 25 25 22 13 22 14 13 28 29 34 38 43 44 44 45 45 43 43 42 42 43 45 48 49 51 54 54 57 47 52 67 56 52 46 42 47 48
10 14 15 23 16 17 18 24 29 17 19 23 21 21 23 21 31 40 49 52 51 48 46 47 46 44 44 45 47 49 51 52 53 51 46 59 58 59 57 50 49 46 50 54
14 11 8 15 27 24 29 26 21 14 11 12 8 23 33 34 38 40 46 39 42 37 45 49 45 44 44 46 46 47 49 51 52 53 56 57 57 55 58 58 57 54 56 55
7 20 16 24 34 33 24 26 16 23 22 18 12 26 37 40 43 37 41 45 27 51 52 45 43 43 44 45 44 45 43 53 53 56 57 58 61 62 62 63 60 57 51 48
17 12 12 28 35 31 21 19 25 19 10 18 16 31 33 28 19 40 47 39 45 49 41 40 42 44 43 44 45 47 50 52 54 55 62 64 68 67 67 68 67 60 51 48
21 23 20 22 26 22 20 28 29 17 20 23 14 23 30 37 51 50 51 42 35 40 42 43 42 41 43 45 47 49 52 55 58 61 64 71 76 70 64 58 58 55 52 49
28 30 25 25 17 26 27 33 21 30 27 20 21 26 42 42 41 43 33 38 46 47 46 45 45 45 45 47 49 51 51 54 58 62 67 70 72 69 61 49 46 45 42 35
38 33 32 29 21 29 28 22 18 29 29 25 26 26 38 41 49 45 39 44 44 40 42 45 45 46 47 48 50 50 53 55 57 58 57 56 49 42 35 34 30 29 27 25
36 37 36 33 17 28 27 29 28 26 35 30 23 29 36 41 26 41 44 41 39 39 42 43 45 48 49 48 49 50 50 49 47 49 52 44 19 21 20 19 18 17 16 19
32 31 31 31 28 24 24 26 21 26 25 18 31 30 29 40 51 44 37 39 40 43 44 45 46 47 46 47 47 48 40 39 41 42 43 36 25 24 26 23 16 12 13 17
33 29 27 24 24 23 19 17 23 14 31 33 27 28 38 42 33 34 37 41 38 40 44 45 46 45 46 46 47 38 34 37 38 38 35 31 24 14 15 11 11 10 14 16
34 29 23 17 16 16 9 26 19 25 25 27 29 34 36 31 32 34 34 37 40 42 44 44 43 44 44 43 42 30 32 34 36 34 32 28 25 21 15 13 13 14 20 21
24 19 17 15 15 12 12 21 21 25 23 23 28 28 26 31 28 29 33 36 39 41 41 40 42 41 41 41 30 28 29 33 35 32 30 27 24 21 18 16 15 15 16 16
15 14 13 12 14 12 15 15 17 22 24 25 33 30 31 30 37 36 35 37 38 38 37 40 38 40 39 38 28 27 29 33 31 29 27 26 25 23 22 21 19 17 13 9
9 9 11 14 16 19 16 15 22 25 27 30 32 29 31 34 41 40 36 36 36 36 38 35 37 39 38 35 26 27 28 28 25 24 25 26 26 24 22 20 19 16 12 10
9 11 14 18 18 18 20 24 24 27 31 30 29 32 34 34 33 38 36 35 35 35 33 34 36 37 34 30 23 23 23 23 22 21 23 24 25 25 25 24 23 22 19 17
11 13 15 16 19 22 24 27 29 32 31 32 32 30 31 31 31 32 33 33 32 30 29 33 36 30 28 21 17 20 22 19 17 18 21 24 26 27 27 27 31 30 29 28
14 14 17 20 21 24 27 30 30 29 29 27 29 30 30 30 30 29 30 30 29 24 29 34 28 22 21 20 19 18 16 15 16 18 21 23 26 30 30 33 35 36 35 35
13 16 21 22 23 25 25 27 27 27 29 30 30 29 28 27 27 29 28 28 22 23 29 27 21 19 18 18 17 15 13 15 19 19 22 23 26 30 33 33 32 35 36 36
15 18 21 23 24 24 25 23 25 28 29 29 27 27 27 27 28 27 27 22 19 23 29 19 17 15 17 17 12 14 13 15 19 20 21 24 25 26 29 30 30 30 31 32
18 20 21 21 23 23 23 26 27 28 28 26 27 26 26 27 25 25 21 19 19 22 19 14 14 14 16 13 11 13 12 14 17 20 19 22 25 25 27 30 32 33 32 32
20 21 24 22 23 23 23 26 27 27 26 24 24 25 25 23 24 20 18 17 17 19 15 13 13 14 12 10 12 14 14 19 22 25 23 22 26 29 30 29 28 29 30 29
Wind_Direction
36 48 285 211 224 268 209 216 257 266 271 268 287 296 287 293 298 300 302 292 289 291 290 292 297 297 296 297 296 296 296 296 297 298 300 302 304 305 311 304 297 286 305 306
26 280 257 275 272 268 253 250 263 241 273 282 308 327 294 289 283 296 289 290 302 291 289 294 297 297 297 295 293 291 291 293 294 298 301 304 305 303 302 292 289 312 318 308
238 253 259 284 299 278 331 246 254 275 280 296 318 297 293 267 270 292 304 258 287 304 296 292 290 290 292 294 295 296 297 298 300 301 303 304 304 301 293 286 317 306 303 296
201 253 279 295 289 277 246 261 272 289 308 326 295 310 289 249 278 291 301 299 292 319 313 300 293 288 287 288 290 292 294 296 298 299 301 303 301 287 300 308 303 304 299 294
276 262 296 248 233 287 285 285 290 309 333 336 320 283 266 274 282 291 291 292 292 311 311 307 301 297 295 293 292 293 295 296 297 298 299 290 293 302 301 304 302 297 296 298
260 305 300 286 292 309 295 296 314 341 342 326 265 281 283 258 275 285 285 292 297 294 309 306 303 302 299 298 298 298 298 296 296 296 283 298 297 297 299 297 288 293 289 294
347 268 268 282 306 295 307 311 320 332 291 251 278 295 271 274 279 285 283 298 298 296 306 304 303 301 300 300 299 298 297 296 295 294 292 293 295 299 297 295 290 288 291 297
266 288 294 299 296 303 310 305 317 293 292 315 270 258 272 273 287 288 294 306 301 307 309 306 305 304 302 300 300 300 291 295 298 299 298 296 295 290 289 292 289 283 291 296
257 239 276 300 301 316 314 315 324 318 339 304 313 306 289 287 278 299 298 295 297 302 304 303 303 304 304 303 302 302 300 300 299 296 299 297 293 289 290 287 288 295 299 296
279 275 267 268 295 312 311 305 311 287 281 305 288 294 290 292 289 292 291 301 305 308 310 310 310 309 309 308 308 306 306 304 301 297 293 293 295 299 295 292 293 293 293 297
284 290 296 297 296 283 282 299 283 286 296 288 286 284 276 283 291 300 287 303 311 313 312 312 313 312 312 312 311 311 308 307 305 302 299 296 295 295 297 296 294 293 296 297
289 298 298 304 313 283 314 291 307 300 305 297 283 290 294 290 291 294 298 316 310 315 314 311 312 313 314 315 315 313 313 312 314 315 316 313 309 302 296 296 293 296 294 290
290 295 302 302 312 296 307 308 307 300 300 301 308 282 287 280 315 316 311 314 316 317 311 314 316 316 317 316 316 317 321 321 325 327 332 335 317 303 301 295 281 284 285 280
296 294 294 295 292 291 274 293 293 271 304 294 292 293 293 291 301 306 305 311 314 314 316 316 316 318 317 319 319 323 323 327 334 338 340 339 331 295 284 293 296 319 312 308
301 299 298 293 293 294 308 298 287 292 299 294 303 293 290 278 291 305 306 307 310 310 314 318 318 318 320 322 325 328 329 334 340 344 342 342 337 328 305 301 302 306 312 299
300 303 304 310 302 298 286 280 305 286 297 300 284 303 297 288 309 304 306 311 312 316 317 318 318 322 324 327 331 329 333 343 340 344 346 343 342 338 334 323 309 305 298 300
300 303 308 313 309 299 285 269 300 306 311 295 304 310 313 313 307 309 313 314 316 318 317 319 324 324 328 331 330 329 336 343 339 342 348 351 352 351 347 341 332 320 312 310
298 304 310 323 320 316 297 297 300 304 308 302 305 310 315 317 314 318 322 317 318 318 320 324 325 328 328 329 326 323 340 343 341 347 354 360 5 7 9 8 6 6 4 348
310 313 320 320 321 314 306 311 310 307 311 309 310 309 315 315 312 315 320 318 320 322 325 325 328 327 328 328 324 327 343 344 347 354 1 4 7 14 16 19 17 9 358 355
307 315 319 319 320 314 308 319 313 312 311 315 313 309 311 313 314 317 320 320 323 326 324 327 327 330 328 331 329 341 356 350 351 6 15 25 38 39 38 36 36 39 47 57
311 312 314 316 320 311 311 312 317 314 315 316 316 316 314 315 315 316 317 321 325 324 326 330 332 333 338 344 354 8 2 6 18 29 40 43 44 46 47 47 50 57 62 69
314 320 315 321 317 308 311 313 312 312 315 317 317 316 317 317 318 318 321 324 324 323 329 333 335 340 355 359 6 18 20 34 43 49 55 54 53 58 58 63 66 69 78 83
323 321 313 319 315 310 313 311 313 316 318 320 319 319 320 320 319 322 324 325 321 327 333 337 343 345 357 9 9 38 51 54 56 61 64 65 64 64 67 68 72 75 79 81
329 322 318 323 317 318 316 317 317 318 320 322 322 322 321 321 322 326 325 327 321 325 337 346 351 6 8 12 31 59 72 64 66 69 70 73 74 72 71 70 74 77 80 83
322 324 321 323 318 318 317 317 316 320 322 323 322 323 322 324 329 327 330 329 326 331 339 351 355 3 10 25 55 72 74 69 70 74 74 78 82 82 81 81 82 81 82 85
323 325 319 315 312 316 313 316 318 322 323 324 322 321 323 330 331 332 334 331 337 339 347 350 352 2 16 52 72 77 76 78 83 81 77 86 93 89 89 88 85 83 85 88
Height
5891 5891 5896 5893 5893 5895 5895 5894 5896 5896 5889 5885 5883 5880 5878 5874 5867 5868 5862 5856 5856 5854 5845 5838 5831 5828 5826 5823 5820 5818 5815 5813 5810 5806 5800 5795 5792 5786 5784 5784 5781 5777 5771 5769
5894 5897 5891 5893 5893 5891 5892 5893 5890 5888 5883 5880 5878 5875 5876 5869 5859 5858 5850 5846 5854 5849 5844 5839 5833 5826 5821 5816 5814 5812 5809 5805 5801 5796 5790 5785 5782 5778 5775 5773 5768 5765 5762 5761
5895 5890 5888 5890 5889 5888 5891 5887 5883 5883 5880 5877 5874 5874 5874 5860 5847 5840 5836 5818 5845 5846 5843 5839 5834 5828 5820 5813 5807 5801 5796 5791 5787 5783 5779 5776 5772 5768 5764 5760 5758 5757 5756 5752
5892 5886 5888 5887 5889 5884 5884 5879 5878 5877 5874 5870 5871 5868 5862 5848 5846 5841 5838 5842 5836 5837 5836 5832 5828 5823 5817 5812 5805 5798 5793 5787 5781 5776 5772 5767 5764 5758 5753 5752 5750 5746 5743 5740
5887 5885 5885 5887 5881 5881 5880 5876 5874 5872 5869 5866 5868 5867 5854 5846 5838 5833 5828 5829 5827 5824 5823 5820 5817 5813 5808 5802 5797 5791 5786 5780 5773 5768 5763 5759 5752 5747 5745 5740 5737 5735 5732 5728
5885 5883 5881 5880 5879 5877 5874 5870 5869 5867 5866 5866 5862 5863 5846 5842 5834 5832 5828 5826 5822 5818 5813 5810 5807 5801 5796 5791 5785 5780 5774 5769 5764 5759 5752 5746 5742 5738 5734 5729 5727 5723 5718 5715
5882 5878 5876 5874 5874 5872 5871 5865 5863 5863 5863 5863 5861 5858 5844 5841 5833 5830 5824 5821 5817 5814 5810 5804 5798 5793 5787 5782 5777 5771 5765 5759 5753 5748 5743 5737 5731 5726 5721 5717 5714 5709 5704 5700
5882 5876 5874 5869 5869 5867 5866 5862 5861 5855 5855 5854 5852 5847 5839 5834 5828 5824 5820 5816 5812 5807 5802 5797 5791 5784 5777 5771 5766 5760 5756 5748 5742 5736 5730 5724 5718 5711 5705 5701 5697 5692 5688 5684
5875 5876 5871 5865 5863 5863 5859 5857 5856 5851 5850 5849 5847 5840 5830 5825 5815 5815 5814 5813 5808 5801 5795 5789 5783 5775 5769 5762 5756 5751 5744 5737 5730 5724 5716 5709 5702 5695 5690 5684 5678 5674 5672 5669
5870 5867 5869 5867 5862 5858 5855 5851 5848 5849 5844 5843 5845 5837 5822 5815 5808 5807 5803 5802 5799 5792 5787 5780 5774 5767 5760 5753 5746 5740 5733 5725 5718 5710 5701 5693 5683 5676 5673 5669 5663 5661 5658 5654
5861 5861 5863 5860 5860 5854 5852 5848 5845 5840 5839 5837 5834 5828 5814 5812 5808 5803 5787 5792 5786 5780 5776 5770 5764 5758 5751 5744 5736 5730 5723 5714 5706 5697 5687 5676 5665 5658 5653 5649 5647 5644 5644 5641
5853 5855 5852 5853 5852 5845 5845 5841 5839 5834 5831 5830 5827 5823 5812 5804 5798 5794 5785 5786 5781 5775 5770 5764 5757 5750 5743 5736 5728 5720 5712 5703 5692 5681 5670 5657 5648 5641 5639 5637 5635 5634 5633 5631
5849 5847 5844 5843 5848 5837 5838 5836 5834 5830 5824 5822 5820 5814 5805 5792 5791 5789 5783 5778 5774 5771 5764 5757 5750 5743 5735 5727 5719 5710 5701 5691 5682 5670 5656 5643 5637 5632 5632 5629 5626 5623 5622 5621
5843 5842 5839 5836 5835 5835 5833 5832 5831 5821 5819 5815 5812 5807 5800 5793 5787 5786 5781 5776 5771 5764 5758 5751 5743 5736 5728 5720 5710 5703 5694 5686 5675 5663 5652 5643 5636 5631 5629 5626 5622 5618 5617 5616
5837 5834 5832 5830 5828 5827 5826 5826 5819 5815 5813 5810 5807 5802 5796 5788 5786 5782 5777 5771 5766 5760 5752 5744 5737 5729 5720 5712 5703 5694 5687 5678 5669 5658 5650 5642 5634 5628 5624 5621 5618 5615 5613 5612
5829 5826 5824 5823 5822 5820 5821 5815 5814 5812 5810 5805 5799 5795 5790 5785 5781 5776 5772 5766 5759 5752 5745 5738 5730 5723 5713 5705 5696 5690 5682 5673 5665 5656 5648 5641 5633 5627 5622 5618 5614 5611 5608 5606
5824 5821 5820 5819 5817 5816 5818 5812 5810 5805 5803 5799 5795 5790 5784 5779 5775 5772 5766 5760 5752 5746 5739 5732 5724 5716 5708 5700 5692 5686 5678 5670 5662 5655 5647 5639 5633 5626 5620 5615 5610 5607 5603 5600
5821 5819 5818 5816 5814 5813 5811 5809 5806 5802 5797 5794 5789 5784 5780 5775 5767 5765 5761 5754 5747 5741 5734 5727 5719 5711 5703 5696 5689 5683 5675 5668 5660 5654 5646 5639 5632 5626 5620 5614 5610 5606 5603 5599
5818 5817 5815 5813 5811 5809 5806 5804 5801 5796 5793 5788 5784 5780 5776 5771 5760 5758 5755 5748 5742 5735 5728 5722 5715 5707 5699 5692 5685 5680 5673 5666 5660 5654 5647 5640 5634 5628 5622 5616 5611 5606 5601 5598
5816 5815 5814 5811 5808 5806 5802 5799 5796 5792 5787 5782 5779 5775 5770 5766 5760 5751 5747 5742 5737 5730 5724 5718 5711 5703 5695 5688 5683 5677 5671 5667 5661 5655 5649 5644 5638 5633 5627 5621 5615 5609 5605 5602
5815 5813 5810 5808 5805 5802 5799 5795 5792 5788 5786 5778 5773 5769 5764 5759 5755 5749 5743 5738 5732 5726 5720 5714 5707 5700 5693 5686 5681 5676 5672 5668 5663 5658 5654 5649 5645 5639 5634 5628 5622 5617 5613 5610
5812 5810 5807 5804 5802 5799 5794 5790 5788 5783 5778 5774 5769 5763 5759 5754 5749 5744 5739 5734 5728 5723 5718 5711 5704 5699 5693 5687 5682 5678 5675 5671 5667 5663 5659 5656 5652 5647 5642 5638 5634 5629 5626 5623
5809 5807 5803 5802 5798 5793 5790 5786 5783 5778 5773 5768 5763 5758 5753 5749 5745 5740 5735 5730 5724 5720 5715 5708 5703 5698 5693 5689 5685 5681 5679 5675 5672 5668 5665 5662 5659 5656 5652 5649 5646 5643 5641 5639
5806 5803 5800 5797 5793 5789 5786 5783 5779 5774 5769 5764 5759 5754 5750 5746 5741 5736 5731 5726 5722 5718 5713 5708 5703 5699 5695 5691 5687 5684 5683 5680 5677 5674 5671 5668 5666 5664 5662 5659 5657 5654 5652 5651
5803 5800 5796 5793 5790 5786 5781 5778 5774 5769 5764 5760 5754 5751 5746 5742 5738 5732 5728 5724 5720 5715 5711 5707 5704 5700 5697 5693 5690 5688 5687 5684 5682 5679 5676 5674 5673 5672 5671 5669 5667 5665 5663 5661
5799 5797 5793 5790 5786 5783 5779 5774 5770 5766 5761 5756 5752 5748 5744 5740 5735 5730 5726 5722 5718 5714 5710 5707 5704 5701 5698 5695 5694 5692 5691 5689 5687 5685 5682 5680 5681 5680 5679 5679 5677 5676 5674 5672